Zurück zum Katalog

STARLINK-3324

AktivKommunikationVLEO
NORAD 50814·PAYLOAD·🇺🇸 United States

Gestartet Jan 6, 2022 von Cape Canaveral Space Force Station

Loading…

Nächste Überflüge (nächste 24 Stunden)

TLE

AktuellSource: CelesTrak SupGP

Epoche: Sep 14, 2026, 20:03 UTC

1 50814C 22001M   26257.83590278  .00048489  00000+0  15594-2 0  2572
2 50814  53.1591  30.1356 0001164  80.3403  71.5521 15.31674983    11

Verfolge STARLINK-3324 in Echtzeit mit AllMySat

Download on the App Store